Powrót do katalogu

STARLINK-2161

AktywnyŁącznośćVLEO
NORAD 47747·PAYLOAD·🇺🇸 United States

Wystrzelony Mar 4, 2021 z Cape Canaveral Space Force Station

Loading…

Następne Przeloty (najbliższe 24 godziny)

TLE

ŚwieżeSource: CelesTrak SupGP

Epoka: Sep 14, 2026, 20:46 UTC

1 47747C 21017AB  26257.86576389  .00042270  00000+0  13592-2 0  2577
2 47747  53.1590  33.5158 0001078  90.3122 221.9005 15.31683771    14

Śledź STARLINK-2161 w czasie rzeczywistym z AllMySat

Download on the App Store